This is the latest recevied weather packets stored in our database for station/object W4DHW-4. If no packets are shown the sender has not sent any weather packets the latest 10 day(s).
| Time | Temp. | Humidity | Pressure | Rain* | Wind** | Luminosity | Snow |
|---|---|---|---|---|---|---|---|
| 1778152317 | 15.56° C | 86% | 1011.9 hPa | 0 mm | - | 14 W/m² | - |
| 1778152013 | 15.56° C | 85% | 1011.8 hPa | 0 mm | - | 13 W/m² | - |
| 1778151710 | 15.56° C | 85% | 1011.6 hPa | 0 mm | - | 16 W/m² | - |
| 1778151407 | 15.56° C | 84% | 1011.4 hPa | 0 mm | - | 10 W/m² | - |
| 1778151103 | 15.56° C | 84% | 1011.5 hPa | 0 mm | - | 17 W/m² | - |
| 1778150800 | 15.56° C | 84% | 1011.4 hPa | 0 mm | - | 10 W/m² | - |
| 1778150497 | 15.56° C | 84% | 1011.3 hPa | 0 mm | - | 5 W/m² | - |
| 1778150193 | 15.56° C | 84% | 1011.2 hPa | 0 mm | - | 3 W/m² | - |
| 1778149890 | 15.56° C | 84% | 1011.3 hPa | 0 mm | - | 3 W/m² | - |
| 1778149586 | 15.56° C | 84% | 1010.9 hPa | 0 mm | - | 3 W/m² | - |
| 1778149282 | 15.56° C | 83% | 1011.1 hPa | 0 mm | - | 1 W/m² | - |
| 1778148978 | 16.11° C | 80% | 1011 hPa | 0 mm | - | 0 W/m² | - |
| 1778148674 | 16.11° C | 80% | 1011.3 hPa | 0 mm | - | 0 W/m² | - |
| 1778148372 | 16.11° C | 79% | 1011.2 hPa | 0 mm | - | 0 W/m² | - |
| 1778148070 | 16.67° C | 78% | 1011.6 hPa | 0 mm | - | 0 W/m² | - |
| 1778147768 | 16.67° C | 80% | 1011.3 hPa | 0 mm | - | 0 W/m² | - |
| 1778147464 | 16.67° C | 76% | 1011 hPa | 0 mm | - | 0 W/m² | - |
| 1778147160 | 16.67° C | 75% | 1011.1 hPa | 0 mm | - | 0 W/m² | - |
| 1778146857 | 16.67° C | 75% | 1011.1 hPa | 0 mm | - | 0 W/m² | - |
| 1778146555 | 16.67° C | 80% | 1011.7 hPa | 0 mm | - | 0 W/m² | - |
| 1778146253 | 16.67° C | 80% | 1011.5 hPa | 0 mm | - | 0 W/m² | - |
| 1778145949 | 16.67° C | 79% | 1011.3 hPa | 0 mm | - | 0 W/m² | - |
| 1778145646 | 16.11° C | 80% | 1011.1 hPa | 0 mm | - | 0 W/m² | - |
| 1778145343 | 16.11° C | 85% | 1010.7 hPa | 0 mm | - | 0 W/m² | - |
| 1778145039 | 16.11° C | 85% | 1010.7 hPa | 0 mm | - | 0 W/m² | - |
* Rain latest hour (hover to see other rain measurements)
** Current wind speed in m/s (hover to see current wind gust speed)